Flag for Paraguay Weather past 2 weeks in Ciudad del Este, Paraguay

Now
84 °F

Scattered clouds.


Feels Like: 87 °F
Forecast: N/A
Wind: 5 mph from South

Location: Foz Do Iguacu Aeroporto

Current Time: Oct 20, 2014 at 6:22:36 PM

Latest Report: Oct 20, 2014 at 5:00 PM


Visibility: N/A

Pressure: 29.95 "Hg

Humidity: 55%

Dew point: 66 °F

Location of Ciudad del EsteLocation

Historic Weather in Ciudad del Este — Graph

°F

Ciudad del Este temperature yesterday

Maximum temperature yesterday: 84 °F (at 12:00 AM)
Minimum temperature yesterday: 68 °F (at 10:00 PM)
Average temperature yesterday: 78 °F

Past Weeks' High & Low Weather Summary

 TemperatureHumidityPressure
High102 °F (Oct 15, 2:00 PM)100% (Oct 6, 7:00 PM)30.12 "Hg (Oct 6, 7:00 PM)
Low59 °F (Oct 7, 1:00 AM)24% (Oct 15, 4:00 PM)29.68 "Hg (Oct 18, 4:00 PM)
Average80 °F66%29.88 "Hg
* Reported Oct 5 5:00 PM — Oct 20 5:00 PM, Ciudad del Este, Weather by CustomWeather, © 2014

Note: Actual official high and low records may vary slightly from our data, if they occured in-between our weather recording intervals... More about our weather records

Advertising

Ciudad del Este weather history for previous 24 hours

 ConditionsComfort  
Time TempWeatherWind HumidityBarometerVisibility
5:00 PM
Oct 20
84 °FScattered clouds.5 mph55%29.95 "HgN/A
4:00 PM84 °FScattered clouds.5 mph51%29.98 "HgN/A
3:00 PM84 °FPartly sunny.5 mph51%29.98 "HgN/A
2:00 PM84 °FPartly sunny.8 mph55%30.01 "HgN/A
1:00 PM82 °FScattered clouds.9 mph58%30.01 "HgN/A
12:00 PM81 °FScattered clouds.7 mph62%30.04 "HgN/A
11:00 AM77 °FScattered clouds.7 mph74%30.04 "HgN/A
10:00 AM75 °FScattered clouds.7 mph74%30.04 "HgN/A
9:00 AM72 °FSunny.3 mph83%30.04 "Hg10 mi
8:00 AM68 °FScattered clouds.6 mph94%30.01 "HgN/A
7:00 AM66 °FBroken clouds.6 mph100%29.98 "HgN/A
6:00 AM66 °FPartly sunny.7 mph94%29.95 "HgN/A
5:00 AM66 °FPassing clouds.2 mph94%29.95 "HgN/A
4:00 AM66 °FPassing clouds.6 mph94%29.98 "HgN/A
3:00 AM68 °FThundershowers. Passing clouds.5 mph88%N/AN/A
2:00 AM68 °FThundershowers. Passing clouds.7 mph88%N/AN/A
12:00 AM68 °FPassing clouds.12 mph88%29.95 "HgN/A
11:00 PM
Oct 19
68 °FPassing clouds.6 mph88%29.95 "HgN/A
10:00 PM68 °FPassing clouds.7 mph88%29.95 "HgN/A
9:00 PM70 °FLight rain. Passing clouds.2 mph83%29.95 "Hg10 mi
8:00 PM70 °FClear.3 mph78%29.92 "Hg10 mi
7:00 PM72 °FClear.6 mph73%29.89 "Hg10 mi
6:00 PM73 °FSunny.12 mph69%29.89 "Hg10 mi
Weather by CustomWeather, © 2014

See weather overviewHow to use our weather pages